CCAGA SCTB-SCVM

Flight info

Callsign CCAGA
Flight time 1h 10m
Altitude 4500
Route DCT
Aircraft BE36/L-VGD/A

Departure

Time 2026-05-05 00:27
Airport Eulogio Sánchez Airport (SCTB)

Arrival

Time 2026-05-05 01:37
Airport Viña del Mar Airport (SCVM)
Time Latitude Longitude Altitude Speed Heading
2026-05-04 23:58 -33.45508 -70.54940 2151 ft 0 kts 115°
2026-05-05 00:11 -33.45523 -70.54897 2147 ft 7 kts 111°
2026-05-05 00:11 -33.45538 -70.54841 2148 ft 9 kts 111°
2026-05-05 00:12 -33.45558 -70.54765 2147 ft 9 kts 90°
2026-05-05 00:12 -33.45506 -70.54735 2148 ft 10 kts 11°
2026-05-05 00:12 -33.45416 -70.54708 2146 ft 16 kts 12°
2026-05-05 00:12 -33.45304 -70.54677 2148 ft 15 kts 11°
2026-05-05 00:13 -33.45193 -70.54645 2147 ft 18 kts 12°
2026-05-05 00:13 -33.45115 -70.54611 2147 ft 7 kts 95°
2026-05-05 00:13 -33.45118 -70.54583 2147 ft 0 kts 98°
2026-05-05 00:13 -33.45118 -70.54579 2147 ft 1 kts 97°
2026-05-05 00:14 -33.45122 -70.54549 2148 ft 7 kts 98°
2026-05-05 00:14 -33.45130 -70.54490 2147 ft 0 kts 101°
2026-05-05 00:16 -33.45127 -70.54509 2147 ft 2 kts 101°
2026-05-05 00:16 -33.45124 -70.54528 2148 ft 2 kts 101°
2026-05-05 00:16 -33.45120 -70.54549 2149 ft 2 kts 101°
2026-05-05 00:17 -33.45117 -70.54569 2147 ft 2 kts 101°
2026-05-05 00:17 -33.45117 -70.54572 2147 ft 0 kts 101°
2026-05-05 00:25 -33.45117 -70.54569 2145 ft 3 kts 105°
2026-05-05 00:25 -33.45123 -70.54543 2149 ft 6 kts 101°
2026-05-05 00:26 -33.45136 -70.54530 2149 ft 0 kts 186°
2026-05-05 00:26 -33.45257 -70.54565 2148 ft 55 kts 194°
2026-05-05 00:26 -33.45606 -70.54663 2159 ft 92 kts 195°
2026-05-05 00:26 -33.46260 -70.54881 2430 ft 99 kts 195°
2026-05-05 00:27 -33.46966 -70.55174 2715 ft 113 kts 212°
2026-05-05 00:27 -33.47401 -70.55917 3151 ft 107 kts 264°
2026-05-05 00:27 -33.47208 -70.56770 3529 ft 111 kts 294°
2026-05-05 00:27 -33.47038 -70.57705 3851 ft 119 kts 279°
2026-05-05 00:28 -33.46926 -70.58768 3993 ft 140 kts 275°
2026-05-05 00:28 -33.46865 -70.60003 4051 ft 153 kts 270°
2026-05-05 00:28 -33.46897 -70.61278 4146 ft 154 kts 265°
2026-05-05 00:28 -33.47108 -70.62593 4048 ft 163 kts 249°
2026-05-05 00:29 -33.47692 -70.63732 4056 ft 159 kts 227°
2026-05-05 00:29 -33.48491 -70.64605 4074 ft 158 kts 225°
2026-05-05 00:29 -33.49047 -70.65746 4016 ft 161 kts 248°
2026-05-05 00:29 -33.49490 -70.66945 4038 ft 156 kts 243°
2026-05-05 00:30 -33.50079 -70.68028 4045 ft 154 kts 227°
2026-05-05 00:30 -33.50939 -70.68771 4075 ft 152 kts 207°
2026-05-05 00:30 -33.51871 -70.69382 4084 ft 151 kts 207°
2026-05-05 00:30 -33.52732 -70.70090 4079 ft 152 kts 218°
2026-05-05 00:31 -33.53549 -70.70903 4070 ft 152 kts 220°
2026-05-05 00:31 -33.54390 -70.71681 4084 ft 150 kts 215°
2026-05-05 00:31 -33.55240 -70.72446 3996 ft 155 kts 218°
2026-05-05 00:31 -33.56093 -70.73228 3950 ft 156 kts 213°
2026-05-05 00:32 -33.57027 -70.73964 3745 ft 165 kts 215°
2026-05-05 00:32 -33.57952 -70.74762 3472 ft 166 kts 218°
2026-05-05 00:32 -33.58580 -70.75885 3259 ft 159 kts 256°
2026-05-05 00:32 -33.58549 -70.77186 3094 ft 154 kts 285°
2026-05-05 00:33 -33.58262 -70.78400 3047 ft 149 kts 284°
2026-05-05 00:33 -33.57972 -70.79595 2934 ft 150 kts 286°
2026-05-05 00:33 -33.57660 -70.80790 2875 ft 147 kts 288°
2026-05-05 00:33 -33.57383 -70.81962 2867 ft 142 kts 283°
2026-05-05 00:34 -33.57130 -70.83060 2940 ft 136 kts 286°
2026-05-05 00:34 -33.56882 -70.84155 2930 ft 136 kts 287°
2026-05-05 00:34 -33.56556 -70.85208 2987 ft 130 kts 295°
2026-05-05 00:34 -33.56153 -70.86214 2922 ft 138 kts 292°
2026-05-05 00:35 -33.55801 -70.87275 2943 ft 135 kts 294°
2026-05-05 00:35 -33.55435 -70.88321 2919 ft 136 kts 289°
2026-05-05 00:35 -33.55065 -70.89363 2949 ft 135 kts 294°
2026-05-05 00:35 -33.54731 -70.90393 3024 ft 135 kts 289°
2026-05-05 00:36 -33.54443 -70.91505 3042 ft 141 kts 288°
2026-05-05 00:36 -33.54109 -70.92593 3075 ft 142 kts 294°
2026-05-05 00:36 -33.53671 -70.93662 3080 ft 140 kts 302°
2026-05-05 00:36 -33.53091 -70.94628 3001 ft 145 kts 309°
2026-05-05 00:37 -33.52497 -70.95582 3113 ft 136 kts 314°
2026-05-05 00:37 -33.51733 -70.96225 3059 ft 141 kts 320°
2026-05-05 00:37 -33.51088 -70.97063 3148 ft 134 kts 311°
2026-05-05 00:37 -33.50484 -70.97960 3077 ft 140 kts 309°
2026-05-05 00:38 -33.49916 -70.98899 3109 ft 141 kts 308°
2026-05-05 00:38 -33.49298 -70.99804 3100 ft 141 kts 313°
2026-05-05 00:38 -33.48635 -71.00670 3105 ft 141 kts 315°
2026-05-05 00:38 -33.47950 -71.01485 3112 ft 139 kts 314°
2026-05-05 00:39 -33.47351 -71.02412 3074 ft 143 kts 308°
2026-05-05 00:39 -33.46693 -71.03285 3154 ft 138 kts 316°
2026-05-05 00:39 -33.46028 -71.04110 3126 ft 140 kts 313°
2026-05-05 00:39 -33.45344 -71.04930 3141 ft 140 kts 314°
2026-05-05 00:40 -33.44683 -71.05790 3179 ft 140 kts 317°
2026-05-05 00:40 -33.43996 -71.06610 3201 ft 139 kts 314°
2026-05-05 00:40 -33.43387 -71.07546 3141 ft 145 kts 304°
2026-05-05 00:40 -33.42945 -71.08611 3252 ft 141 kts 288°
2026-05-05 00:41 -33.42687 -71.09725 3247 ft 139 kts 285°
2026-05-05 00:41 -33.42421 -71.10811 3157 ft 135 kts 290°
2026-05-05 00:41 -33.42097 -71.11855 2906 ft 130 kts 290°
2026-05-05 00:41 -33.41745 -71.12860 2606 ft 131 kts 292°
2026-05-05 00:42 -33.41352 -71.13821 2330 ft 131 kts 300°
2026-05-05 00:42 -33.40928 -71.14791 2022 ft 131 kts 295°
2026-05-05 00:42 -33.40504 -71.15758 1685 ft 129 kts 297°
2026-05-05 00:42 -33.40159 -71.16620 1711 ft 101 kts 289°
2026-05-05 00:43 -33.39932 -71.17386 1577 ft 96 kts 285°
2026-05-05 00:43 -33.39772 -71.18176 1418 ft 103 kts 264°
2026-05-05 00:43 -33.40192 -71.18855 1239 ft 106 kts 195°
2026-05-05 00:43 -33.40757 -71.18561 1079 ft 88 kts 112°
2026-05-05 00:44 -33.40914 -71.17864 896 ft 87 kts 107°
2026-05-05 00:44 -33.41100 -71.17169 727 ft 85 kts 107°
2026-05-05 00:44 -33.41252 -71.16636 690 ft 59 kts 109°
2026-05-05 00:44 -33.41428 -71.15985 788 ft 96 kts 108°
2026-05-05 00:45 -33.41645 -71.15217 1127 ft 98 kts 109°
2026-05-05 00:45 -33.41870 -71.14414 1460 ft 108 kts 114°
2026-05-05 00:45 -33.42041 -71.13546 1839 ft 116 kts 73°
2026-05-05 00:45 -33.41448 -71.12978 1839 ft 114 kts
2026-05-05 00:46 -33.40757 -71.13371 1749 ft 115 kts 306°
2026-05-05 00:46 -33.40511 -71.14274 1683 ft 115 kts 280°
2026-05-05 00:46 -33.40371 -71.15255 1690 ft 123 kts 279°
2026-05-05 00:46 -33.40214 -71.16264 1688 ft 122 kts 282°
2026-05-05 00:47 -33.40017 -71.17178 1670 ft 103 kts 284°
2026-05-05 00:47 -33.39862 -71.17979 1516 ft 98 kts 282°
2026-05-05 00:47 -33.39746 -71.18787 1326 ft 101 kts 267°
2026-05-05 00:47 -33.40066 -71.19432 1172 ft 89 kts 205°
2026-05-05 00:48 -33.40623 -71.19297 1056 ft 88 kts 116°
2026-05-05 00:48 -33.40763 -71.18550 1022 ft 90 kts 102°
2026-05-05 00:48 -33.40917 -71.17844 895 ft 86 kts 106°
2026-05-05 00:48 -33.41100 -71.17172 733 ft 82 kts 106°
2026-05-05 00:49 -33.41247 -71.16650 689 ft 60 kts 109°
2026-05-05 00:49 -33.41435 -71.15988 833 ft 96 kts 109°
2026-05-05 00:49 -33.41634 -71.15209 1232 ft 102 kts 107°
2026-05-05 00:49 -33.41864 -71.14389 1614 ft 104 kts 103°
2026-05-05 00:50 -33.41679 -71.13635 1823 ft 101 kts 39°
2026-05-05 00:50 -33.41010 -71.13487 1963 ft 103 kts 333°
2026-05-05 00:50 -33.40719 -71.14223 2122 ft 108 kts 269°
2026-05-05 00:50 -33.40843 -71.15146 2482 ft 118 kts 257°
2026-05-05 00:51 -33.41059 -71.16119 2810 ft 124 kts 257°
2026-05-05 00:51 -33.41264 -71.17141 3187 ft 124 kts 257°
2026-05-05 00:51 -33.41527 -71.18162 3497 ft 129 kts 250°
2026-05-05 00:51 -33.41903 -71.19130 3870 ft 128 kts 244°
2026-05-05 00:52 -33.42412 -71.19992 4254 ft 126 kts 229°
2026-05-05 00:52 -33.43021 -71.20709 4678 ft 118 kts 223°
2026-05-05 00:52 -33.43717 -71.21422 4662 ft 141 kts 229°
2026-05-05 00:52 -33.44415 -71.22267 4735 ft 145 kts 228°
2026-05-05 00:53 -33.45119 -71.23146 4795 ft 148 kts 226°
2026-05-05 00:53 -33.45890 -71.24001 4864 ft 149 kts 226°
2026-05-05 00:53 -33.46598 -71.24910 4867 ft 151 kts 234°
2026-05-05 00:53 -33.47171 -71.25943 4919 ft 146 kts 242°
2026-05-05 00:54 -33.47727 -71.26966 4962 ft 146 kts 239°
2026-05-05 00:54 -33.48247 -71.28001 5019 ft 142 kts 244°
2026-05-05 00:54 -33.48786 -71.29010 5016 ft 148 kts 242°
2026-05-05 00:54 -33.49118 -71.29744 4917 ft 154 kts 251°
2026-05-05 00:55 -33.49615 -71.31373 4868 ft 155 kts 252°
2026-05-05 00:55 -33.50142 -71.32494 4875 ft 156 kts 240°
2026-05-05 00:55 -33.50794 -71.33497 4860 ft 153 kts 230°
2026-05-05 00:55 -33.51529 -71.34486 4666 ft 158 kts 229°
2026-05-05 00:56 -33.52271 -71.35427 4416 ft 153 kts 231°
2026-05-05 00:56 -33.52914 -71.36382 4163 ft 145 kts 233°
2026-05-05 00:56 -33.53492 -71.37317 3879 ft 137 kts 236°
2026-05-05 00:56 -33.54020 -71.38241 3597 ft 134 kts 237°
2026-05-05 00:57 -33.54515 -71.39128 3549 ft 126 kts 236°
2026-05-05 00:57 -33.54861 -71.39716 3362 ft 135 kts 233°
2026-05-05 00:57 -33.55335 -71.40664 3271 ft 132 kts 240°
2026-05-05 00:57 -33.55786 -71.41613 3219 ft 130 kts 242°
2026-05-05 00:58 -33.56177 -71.42604 3125 ft 132 kts 248°
2026-05-05 00:58 -33.56557 -71.43610 3026 ft 135 kts 247°
2026-05-05 00:58 -33.56937 -71.44615 3116 ft 127 kts 245°
2026-05-05 00:58 -33.57367 -71.45552 3106 ft 128 kts 243°
2026-05-05 00:59 -33.57822 -71.46500 3066 ft 131 kts 243°
2026-05-05 00:59 -33.58234 -71.47467 3082 ft 130 kts 242°
2026-05-05 00:59 -33.58730 -71.48391 3042 ft 131 kts 239°
2026-05-05 00:59 -33.59216 -71.49318 3028 ft 131 kts 239°
2026-05-05 01:00 -33.59656 -71.50249 3036 ft 131 kts 241°
2026-05-05 01:00 -33.60081 -71.51219 3029 ft 130 kts 242°
2026-05-05 01:00 -33.60589 -71.52115 3043 ft 130 kts 237°
2026-05-05 01:00 -33.61094 -71.53008 3071 ft 128 kts 237°
2026-05-05 01:01 -33.61601 -71.53900 3041 ft 131 kts 236°
2026-05-05 01:01 -33.62119 -71.54783 3087 ft 126 kts 234°
2026-05-05 01:01 -33.62743 -71.55485 3107 ft 125 kts 194°
2026-05-05 01:01 -33.63592 -71.55368 3084 ft 126 kts 147°
2026-05-05 01:02 -33.64072 -71.54529 3061 ft 124 kts 95°
2026-05-05 01:02 -33.63844 -71.53580 3043 ft 116 kts 58°
2026-05-05 01:02 -33.63455 -71.52823 2963 ft 101 kts 59°
2026-05-05 01:02 -33.63101 -71.52090 2778 ft 101 kts 60°
2026-05-05 01:03 -33.62740 -71.51310 2450 ft 117 kts 59°
2026-05-05 01:03 -33.62345 -71.50489 2214 ft 116 kts 52°
2026-05-05 01:03 -33.61716 -71.49848 2005 ft 109 kts 44°
2026-05-05 01:03 -33.61368 -71.49047 1947 ft 109 kts 66°
2026-05-05 01:04 -33.61031 -71.48230 1955 ft 116 kts 60°
2026-05-05 01:04 -33.59669 -71.48134 2092 ft 121 kts 307°
2026-05-05 01:04 -33.59421 -71.49091 2121 ft 118 kts 271°
2026-05-05 01:05 -33.59640 -71.50003 2123 ft 111 kts 246°
2026-05-05 01:05 -33.59981 -71.50793 2065 ft 104 kts 242°
2026-05-05 01:05 -33.60302 -71.51592 2018 ft 106 kts 239°
2026-05-05 01:05 -33.60674 -71.52374 1951 ft 109 kts 243°
2026-05-05 01:06 -33.60982 -71.53162 1815 ft 97 kts 242°
2026-05-05 01:06 -33.61309 -71.53873 1673 ft 99 kts 243°
2026-05-05 01:06 -33.61683 -71.54562 1545 ft 101 kts 232°
2026-05-05 01:06 -33.62124 -71.55150 1461 ft 92 kts 227°
2026-05-05 01:07 -33.62539 -71.55761 1339 ft 95 kts 236°
2026-05-05 01:07 -33.62879 -71.56425 1177 ft 97 kts 232°
2026-05-05 01:07 -33.63217 -71.57155 1046 ft 99 kts 243°
2026-05-05 01:07 -33.63581 -71.57858 931 ft 99 kts 230°
2026-05-05 01:08 -33.63965 -71.58508 849 ft 97 kts 239°
2026-05-05 01:08 -33.64320 -71.59180 691 ft 93 kts 232°
2026-05-05 01:08 -33.64687 -71.59843 528 ft 100 kts 240°
2026-05-05 01:08 -33.65100 -71.60503 408 ft 98 kts 232°
2026-05-05 01:09 -33.65446 -71.61177 261 ft 88 kts 238°
2026-05-05 01:09 -33.65686 -71.61612 245 ft 23 kts 235°
2026-05-05 01:09 -33.65698 -71.61656 244 ft 7 kts 64°
2026-05-05 01:09 -33.65676 -71.61605 245 ft 7 kts 57°
2026-05-05 01:10 -33.65642 -71.61542 245 ft 11 kts 67°
2026-05-05 01:10 -33.65593 -71.61476 244 ft 10 kts 342°
2026-05-05 01:10 -33.65552 -71.61531 241 ft 8 kts 337°
2026-05-05 01:10 -33.65532 -71.61489 242 ft 6 kts 79°
2026-05-05 01:11 -33.65535 -71.61479 242 ft 0 kts 135°
2026-05-05 01:13 -33.65530 -71.61448 243 ft 10 kts 67°
2026-05-05 01:13 -33.65504 -71.61372 245 ft 11 kts 71°
2026-05-05 01:13 -33.65476 -71.61292 246 ft 12 kts 54°
2026-05-05 01:14 -33.65469 -71.61280 246 ft 0 kts 53°
2026-05-05 01:15 -33.65451 -71.61249 246 ft 17 kts 58°
2026-05-05 01:15 -33.65464 -71.61219 247 ft 4 kts 230°
2026-05-05 01:15 -33.65470 -71.61230 247 ft 0 kts 236°
2026-05-05 01:18 -33.65632 -71.61519 245 ft 85 kts 234°
2026-05-05 01:18 -33.66019 -71.62206 518 ft 103 kts 236°
2026-05-05 01:18 -33.66443 -71.62927 1021 ft 106 kts 232°
2026-05-05 01:19 -33.66635 -71.63731 1479 ft 113 kts 288°
2026-05-05 01:19 -33.66105 -71.64343 2076 ft 95 kts 333°
2026-05-05 01:19 -33.65423 -71.64566 2375 ft 115 kts
2026-05-05 01:19 -33.64726 -71.64246 2861 ft 110 kts 25°
2026-05-05 01:20 -33.63965 -71.63994 3197 ft 114 kts
2026-05-05 01:20 -33.63209 -71.63846 3634 ft 111 kts
2026-05-05 01:20 -33.62404 -71.63761 3852 ft 122 kts
2026-05-05 01:20 -33.61476 -71.63726 3868 ft 143 kts
2026-05-05 01:21 -33.60439 -71.63670 3906 ft 152 kts
2026-05-05 01:21 -33.59365 -71.63618 3963 ft 156 kts
2026-05-05 01:21 -33.58262 -71.63569 3984 ft 160 kts
2026-05-05 01:21 -33.57154 -71.63477 3994 ft 163 kts
2026-05-05 01:22 -33.56032 -71.63255 3998 ft 163 kts 10°
2026-05-05 01:22 -33.54913 -71.62990 4000 ft 164 kts 11°
2026-05-05 01:22 -33.53791 -71.62741 4000 ft 164 kts
2026-05-05 01:22 -33.52680 -71.62485 4001 ft 163 kts 14°
2026-05-05 01:23 -33.51595 -71.62114 3997 ft 162 kts 16°
2026-05-05 01:23 -33.50520 -71.61722 3999 ft 161 kts 16°
2026-05-05 01:23 -33.49438 -71.61338 4002 ft 163 kts 14°
2026-05-05 01:23 -33.48329 -71.61051 4002 ft 163 kts 10°
2026-05-05 01:24 -33.47211 -71.60797 4000 ft 164 kts 11°
2026-05-05 01:24 -33.46088 -71.60517 4009 ft 165 kts 12°
2026-05-05 01:24 -33.44967 -71.60219 4002 ft 165 kts 12°
2026-05-05 01:24 -33.43846 -71.59924 4003 ft 165 kts 11°
2026-05-05 01:25 -33.42721 -71.59640 4006 ft 165 kts 11°
2026-05-05 01:25 -33.41594 -71.59358 4009 ft 165 kts 11°
2026-05-05 01:25 -33.40475 -71.59070 4005 ft 163 kts 11°
2026-05-05 01:25 -33.39368 -71.58785 4005 ft 163 kts 12°
2026-05-05 01:26 -33.38260 -71.58501 4009 ft 163 kts 11°
2026-05-05 01:26 -33.37152 -71.58221 4008 ft 162 kts 11°
2026-05-05 01:26 -33.36048 -71.57938 4011 ft 162 kts 11°
2026-05-05 01:26 -33.34944 -71.57656 4008 ft 162 kts 11°
2026-05-05 01:27 -33.33842 -71.57374 4010 ft 162 kts 11°
2026-05-05 01:27 -33.32736 -71.57093 4016 ft 162 kts 11°
2026-05-05 01:27 -33.31632 -71.56811 4009 ft 162 kts 11°
2026-05-05 01:27 -33.30527 -71.56530 4005 ft 162 kts 11°
2026-05-05 01:28 -33.29429 -71.56249 4020 ft 162 kts 11°
2026-05-05 01:28 -33.28324 -71.55968 4015 ft 162 kts 11°
2026-05-05 01:28 -33.27219 -71.55686 4015 ft 163 kts 11°
2026-05-05 01:28 -33.26110 -71.55404 4019 ft 163 kts 11°
2026-05-05 01:29 -33.24999 -71.55122 4007 ft 163 kts 11°
2026-05-05 01:29 -33.23891 -71.54840 4007 ft 162 kts 11°
2026-05-05 01:29 -33.22784 -71.54557 4016 ft 163 kts 12°
2026-05-05 01:29 -33.21673 -71.54270 4017 ft 164 kts 11°
2026-05-05 01:30 -33.20569 -71.53993 4010 ft 164 kts 11°
2026-05-05 01:30 -33.19441 -71.53710 4012 ft 164 kts 11°
2026-05-05 01:30 -33.18703 -71.53521 4016 ft 164 kts 12°
2026-05-05 01:30 -33.17222 -71.53141 4014 ft 164 kts 11°
2026-05-05 01:31 -33.16103 -71.52855 4012 ft 165 kts 11°
2026-05-05 01:31 -33.14980 -71.52574 4008 ft 165 kts 11°
2026-05-05 01:31 -33.13860 -71.52289 4000 ft 164 kts 12°
2026-05-05 01:31 -33.13102 -71.52096 4008 ft 164 kts 12°
2026-05-05 01:32 -33.11620 -71.51718 4002 ft 164 kts 11°
2026-05-05 01:32 -33.10501 -71.51435 4003 ft 164 kts 12°
2026-05-05 01:32 -33.09746 -71.51245 3994 ft 164 kts 12°
2026-05-05 01:32 -33.08631 -71.50960 3994 ft 164 kts 11°
2026-05-05 01:33 -33.07539 -71.50681 3874 ft 157 kts 11°
2026-05-05 01:33 -33.06495 -71.50418 3758 ft 150 kts 11°
2026-05-05 01:33 -33.05490 -71.50356 3592 ft 141 kts 355°
2026-05-05 01:33 -33.04553 -71.50550 3242 ft 132 kts 350°
2026-05-05 01:34 -33.03629 -71.50732 2844 ft 136 kts 352°
2026-05-05 01:34 -33.02686 -71.50892 2504 ft 138 kts 349°
2026-05-05 01:34 -33.01775 -71.51005 2387 ft 128 kts 360°
2026-05-05 01:34 -33.00871 -71.50982 2224 ft 133 kts
2026-05-05 01:35 -32.99921 -71.50933 1991 ft 138 kts
2026-05-05 01:35 -32.99001 -71.50815 1830 ft 130 kts
2026-05-05 01:35 -32.98137 -71.50699 1609 ft 117 kts
2026-05-05 01:35 -32.97416 -71.50492 1367 ft 98 kts 17°
2026-05-05 01:36 -32.96791 -71.50196 1119 ft 94 kts 25°
2026-05-05 01:36 -32.96247 -71.49764 898 ft 97 kts 41°
2026-05-05 01:36 -32.95801 -71.49170 683 ft 97 kts 53°
2026-05-05 01:36 -32.95409 -71.48548 476 ft 83 kts 55°
2026-05-05 01:37 -32.95134 -71.48127 452 ft 50 kts 57°
2026-05-05 01:37 -32.94972 -71.47871 434 ft 22 kts 52°
2026-05-05 01:37 -32.94887 -71.47871 446 ft 12 kts 331°
2026-05-05 01:37 -32.94824 -71.47926 447 ft 11 kts 324°
2026-05-05 01:38 -32.94802 -71.47988 447 ft 8 kts 228°
2026-05-05 01:38 -32.94842 -71.48042 449 ft 12 kts 207°
2026-05-05 01:38 -32.94855 -71.48069 449 ft 0 kts 324°